{"data":{"norad_id":53612,"intl_designator":"2022-104AA","name":"STARLINK-4658","alt_names":[],"object_type":"PAYLOAD","status":"ACTIVE","operator":null,"country":"US","launch_date":"2022-08-28","launch_site_code":"AFETR","launch_vehicle":null,"mission":null,"orbit_class":"UNKNOWN","rcs_meters":null,"size_class":null,"mass_kg":null,"dimensions":null,"purposes":["comms"],"wikipedia_slug":null,"has_3d_model":false,"image_url":null,"decayed_at":null,"tle_current":{"epoch":"2026-05-24T23:54:24.511392Z","epoch_age_seconds":78624,"freshness":"FRESH","line1":"1 53612U 22104AA  26144.99611703 -.00000050  00000+0  14930-4 0  9995","line2":"2 53612  53.2138 251.6421 0001112  75.6245 284.4870 15.08834017207151","mean_motion":15.08834017,"eccentricity":0.0001112,"inclination_deg":53.2138,"raan_deg":251.6421,"arg_perigee_deg":75.6245,"mean_anomaly_deg":284.487,"bstar":1.493e-5,"rev_number":20715,"period_min":95.437933117596,"perigee_km":538.99240632915,"apogee_km":540.53094699484,"semimajor_km":6917.898676662,"source":"CELESTRAK","updated_at":"2026-05-25T13:38:17.478136Z"}}}